Regional Weather Roundup
Issued by NWS

Home | Current Version | Previous Version | Text Only | Print | Product List | Glossary Off
Versions: 1 2 3 4 5 6 7 8 9 10 11 12 13 14 15 16 17 18 19 20 21 22 23 24 25 26 27 28 29 30 31 32 33 34 35 36 37 38 39 40 41 42 43 44 45 46 47 48 49 50

000
ASUS43 KIND 292259
RWRIN

WEATHER ROUNDUP FOR INDIANA
NATIONAL WEATHER SERVICE INDIANAPOLIS IN
700 PM EDT WED JUL 29 2015

NOTE: "FAIR" INDICATES FEW OR NO CLOUDS BELOW 12,000 FEET WITH NO
SIGNIFICANT WEATHER AND/OR OBSTRUCTIONS TO VISIBILITY.

* - STATION DOES NOT REPORT WEATHER SUCH AS PRECIPITATION OR FOG.

+ - STATION NOT QUALITY CONTROLLED BY THE NATIONAL WEATHER SERVICE.
    USE DATA WITH CAUTION...ESPECIALLY DEWPOINT AND RELATIVE
    HUMIDITY OBSERVATIONS.

INZ001>003-010>013-019-020-300000-
NORTHWEST INDIANA

CITY           SKY/WX    TMP DP  RH WIND       PRES   REMARKS
GARY /AIRPORT/ MOSUNNY   86  52  30 W23       29.96S
RENSSELAER +   SUNNY     82  55  39 W13G18    29.98S

$$

LMZ046-743>745-300000-
SOUTHERN LAKE MICHIGAN

STATION/POSITION TIME  TEMP    WIND        PRES    WAVE
                       AIR SEA DIR/SP/G            HT
                 (UTC) (F)     (DEG/KT/KT) (MB)    (FT)
BURNS HARBOR     2200   84      60/  3/  3 1014.9S
MICHIGAN CITY    2200   81     270/  2/  4   N/A
5NW MICH CITY    2200   80 78  290/  2/  2   N/A     1

$$

INZ004-005-014>016-021>024-300000-
NORTH CENTRAL INDIANA

CITY           SKY/WX    TMP DP  RH WIND       PRES   REMARKS
GOSHEN         SUNNY     81  61  50 NW12      29.95S
SOUTH BEND     SUNNY     83  59  44 NW7       29.97S

$$

INZ006>009-017-018-025>027-300000-
NORTHEAST INDIANA

CITY           SKY/WX    TMP DP  RH WIND       PRES   REMARKS
ANGOLA *+      SUNNY     82  79  89 NW10      29.94S
FORT WAYNE     PTSUNNY   86  73  65 W14       29.93F

$$

INZ028-029-035-036-043>045-051>053-300000-
WEST CENTRAL INDIANA

CITY           SKY/WX    TMP DP  RH WIND       PRES   REMARKS
CRAWFORDSVL +  PTSUNNY   82  70  67 NW9         N/A
GREENCASTLE +  CLOUDY    82  72  69 NW7       29.98R
LAFAYETTE      MOSUNNY   82  68  62 NW9       29.96S
TERRE HAUTE    CLOUDY    85  75  72 NW10      29.97S

$$

INZ030>032-037>040-046>048-054>057-064-065-300000-
CENTRAL INDIANA

CITY           SKY/WX    TMP DP  RH WIND       PRES   REMARKS
GREENWOOD *+   CLOUDY    84  72  65 NW8       29.97R
INDIANAPOLIS   CLOUDY    85  73  67 NW12      29.95S
-EAGLE CREEK   PTSUNNY   84  75  74 NW12      29.95S
KOKOMO *+      MOSUNNY   86  75  70 N10       29.94F HX  95
MT COMFORT *+  PTSUNNY   84  77  79 NW7       29.96S
SHELBYVILLE    CLOUDY    86  76  71 NW5       29.95R HX  96

$$

INZ033-034-041-042-049-050-058-059-300000-
EAST CENTRAL INDIANA

CITY           SKY/WX    TMP DP  RH WIND       PRES   REMARKS
MUNCIE         MOSUNNY   84  73  69 NW10      29.94F

$$

INZ060-061-067>069-081>083-085>088-300000-
SOUTHWEST INDIANA

CITY           SKY/WX    TMP DP  RH WIND       PRES   REMARKS
EVANSVILLE     PTSUNNY   86  74  67 N6        29.96R
HUNTINGBURG *+ PTSUNNY   88  73  62 NW12      29.96S HX  96

$$

INZ062-063-066-070>080-084-089>092-300000-
SOUTH CENTRAL AND SOUTHEAST INDIANA

CITY           SKY/WX    TMP DP  RH WIND       PRES   REMARKS
BLOOMINGTON    CLOUDY    85  77  77 NW5       29.97R HX  95
MADISON *+     CLOUDY    75  72  88 SW3       29.97S
SEYMOUR +      CLOUDY    79  75  89 CALM      29.95S

$$




USA.gov is the U.S. government's official web portal to all federal, state and local government web resources and services.